Wind_Speed
10 13 9 11 16 15 15 15 18 20 25 28 24 14 8 9 6 13 21 22 15 16 22 23 25 24 22 21 23 25 27 27 20 15 16 18 17 21 18 16 18 20 19
12 15 11 17 13 16 14 12 15 19 21 24 4 14 8 7 9 12 14 18 17 18 20 24 24 23 24 23 21 25 23 21 19 21 20 19 18 14 14 12 13 20 18
16 17 16 11 12 14 10 11 11 12 11 3 6 14 9 7 7 11 15 17 21 23 23 21 21 21 22 17 18 22 25 25 25 23 23 20 14 12 15 15 12 15 18
16 12 6 6 11 10 9 9 4 7 7 14 12 7 4 7 12 15 15 18 20 22 19 17 16 15 16 16 14 17 21 26 26 27 26 22 18 17 19 21 19 15 15
11 7 5 7 10 9 9 9 1 9 11 10 4 2 5 10 12 13 14 16 19 22 21 16 13 12 14 15 15 15 17 20 20 24 22 23 23 24 24 23 21 16 16
15 9 2 5 6 6 5 6 5 2 5 6 4 4 6 10 12 13 14 15 19 21 18 17 13 13 14 15 15 15 13 15 16 18 20 22 23 18 19 17 20 19 15
14 3 1 2 3 4 3 2 3 4 5 4 2 4 8 10 11 13 14 15 16 17 18 15 11 12 14 9 8 7 6 9 13 16 18 20 20 20 14 14 15 18 17
9 4 3 3 3 4 4 3 1 0 2 1 1 4 8 12 14 12 13 14 14 15 16 12 12 10 11 11 5 3 4 3 4 8 13 15 13 14 13 14 13 18 18
7 4 6 6 4 5 5 4 3 2 1 1 2 5 9 12 13 12 12 14 13 13 15 12 12 10 8 7 7 7 5 3 5 5 5 11 12 14 17 16 17 17 18
11 8 7 6 5 5 4 7 4 5 2 1 2 4 8 10 13 15 14 13 13 13 14 12 12 12 6 4 5 4 4 5 5 5 6 10 13 15 16 16 21 17 19
14 10 8 4 6 9 9 9 8 4 2 3 0 4 7 10 14 16 17 16 13 11 13 12 11 11 11 7 5 6 5 4 5 6 7 8 10 13 16 18 17 17 17
15 12 8 5 9 11 13 24 7 4 3 3 0 4 9 12 14 16 18 18 15 11 11 11 11 11 10 9 9 8 7 7 5 4 3 4 5 8 11 13 14 16 18
19 14 11 5 6 7 11 15 2 2 3 2 2 5 11 12 13 16 18 19 16 13 10 10 11 10 9 8 8 8 8 9 7 6 5 3 7 8 9 12 14 15 19
15 13 9 5 6 4 10 6 6 1 1 3 5 6 10 10 13 14 16 20 18 14 11 9 9 10 10 8 8 9 10 10 10 10 9 7 7 6 8 11 12 13 13
17 12 9 6 4 0 4 2 4 3 3 5 7 8 9 11 13 15 16 18 18 16 12 10 10 10 10 8 8 9 10 12 12 11 10 8 7 4 5 5 8 11 12
18 13 11 9 5 5 5 3 4 3 1 1 7 9 11 14 14 16 17 17 18 17 14 10 10 9 9 9 9 9 11 12 15 14 12 10 8 7 6 7 7 8 6
18 15 11 10 8 9 9 8 5 3 3 5 8 12 13 15 17 18 18 18 19 19 15 11 9 10 9 9 9 10 11 15 17 17 14 12 10 8 7 7 7 7 8
17 16 13 14 11 14 14 8 7 8 9 7 10 13 16 18 18 21 21 20 21 22 16 12 10 10 9 10 11 12 14 17 18 17 13 11 11 12 10 8 8 10 11
15 15 12 18 16 12 13 12 11 12 11 10 11 14 17 18 19 22 22 22 23 23 20 14 11 11 12 13 14 15 15 16 17 16 13 12 10 9 8 10 12 13 14
15 14 12 13 13 13 17 19 16 16 15 15 15 17 19 19 20 22 22 23 24 23 17 14 13 11 11 14 15 13 18 20 23 19 13 13 10 10 12 12 14 17 17
13 14 13 18 16 18 19 18 18 16 16 16 18 20 20 20 21 23 24 25 23 18 12 11 12 12 13 17 16 19 20 21 19 15 13 11 11 11 12 15 17 17 16
15 19 16 17 17 17 18 16 15 16 16 17 20 20 21 22 21 21 23 23 22 18 17 13 13 15 17 16 20 21 22 15 15 14 13 13 14 13 14 16 16 16 17
14 14 14 15 16 15 15 15 15 16 18 18 20 22 21 20 19 19 19 20 16 16 14 15 20 13 15 15 16 15 17 15 17 19 16 17 15 15 17 16 17 17 16
14 13 16 17 16 15 15 14 14 15 17 21 22 20 18 18 17 15 14 15 13 15 16 14 18 17 19 19 15 17 16 20 18 16 20 17 17 16 18 19 18 18 17
16 15 16 18 16 16 15 13 13 14 18 19 18 16 13 13 13 13 13 13 13 15 19 19 17 17 16 19 15 15 19 19 18 18 20 14 17 21 22 18 17 14 13
16 16 16 16 19 11 14 14 15 16 16 17 15 13 13 14 14 14 15 15 15 14 14 16 14 13 15 14 18 22 18 18 19 16 18 19 19 18 19 18 15 11 12
Wind_Direction
224 240 240 236 270 321 318 300 300 300 278 279 277 215 225 229 265 281 286 328 321 314 306 304 295 284 276 253 250 251 248 247 223 239 262 275 283 276 264 276 257 250 253
216 220 237 239 292 318 311 312 317 306 294 290 292 197 223 243 277 294 308 324 333 315 300 298 302 290 279 273 261 248 249 252 248 261 261 262 266 284 302 305 265 250 251
223 242 241 273 302 319 326 334 330 340 305 188 144 178 222 286 312 317 319 327 325 323 319 311 299 297 286 280 260 256 245 249 250 253 255 251 255 236 264 270 274 266 260
244 273 273 312 318 335 331 344 8 29 69 140 133 153 319 330 336 334 333 320 321 325 325 309 307 305 293 288 269 264 250 244 248 249 250 246 256 243 247 254 263 268 266
230 278 326 334 337 334 341 350 43 79 85 104 106 35 355 345 339 328 324 327 331 340 343 334 321 319 306 292 282 268 258 254 250 252 243 243 247 249 242 252 260 260 266
185 248 327 342 337 332 330 348 20 161 84 93 77 38 357 337 332 329 329 336 337 347 346 339 336 330 321 298 285 279 263 246 248 246 241 253 254 237 241 253 247 254 267
199 258 261 303 314 311 299 341 42 107 115 92 62 7 347 343 341 337 340 338 339 344 346 343 344 340 347 328 300 296 290 261 252 245 240 256 251 230 247 257 249 255 254
216 225 251 273 311 305 280 297 352 150 177 107 338 348 357 359 354 352 345 342 341 349 350 354 353 355 6 16 357 339 343 336 285 266 243 249 216 241 253 251 248 258 254
240 274 267 283 298 305 282 285 287 298 239 169 293 349 3 4 2 356 350 351 348 350 354 360 12 6 17 13 16 41 27 11 349 325 263 221 231 252 238 250 252 257 262
226 271 281 286 307 289 276 276 256 288 268 202 286 351 6 3 5 7 3 3 357 358 2 8 13 18 22 43 19 16 5 333 316 294 274 247 246 249 248 253 247 253 257
195 251 285 292 299 268 271 269 230 216 220 201 320 356 355 350 1 9 6 6 1 6 9 17 21 27 34 25 2 4 356 337 313 298 274 264 261 265 256 251 251 258 263
195 226 246 271 299 291 280 297 220 152 163 179 84 356 351 347 357 3 9 8 2 6 11 12 20 30 37 38 35 34 42 20 359 343 317 291 270 251 248 248 253 260 268
203 189 228 249 311 306 271 118 264 166 151 149 299 341 338 344 358 359 7 5 3 2 6 11 9 7 23 35 37 38 29 18 19 14 355 335 321 286 266 260 261 268 270
211 215 233 235 291 43 33 216 260 20 202 257 283 323 319 359 356 359 5 4 0 357 356 359 5 360 4 12 29 31 29 20 12 359 344 327 323 309 292 280 263 277 287
203 221 217 248 259 22 38 350 285 318 268 279 304 289 325 349 347 348 352 354 355 355 350 348 352 3 11 11 24 28 26 21 15 8 360 350 343 327 342 272 277 283 284
206 213 206 222 224 194 164 187 233 216 227 280 288 305 333 333 331 332 335 336 339 343 342 339 337 345 358 7 11 7 2 8 3 355 346 341 335 319 308 298 295 292 286
215 219 202 216 213 220 193 202 210 199 232 258 286 320 326 326 324 319 326 322 322 328 331 329 323 323 331 342 345 344 347 351 354 350 343 339 336 336 327 315 307 308 300
211 230 208 216 220 216 218 219 220 239 254 290 306 318 323 320 314 308 312 313 312 313 317 325 310 305 311 317 320 325 332 343 346 349 342 339 335 332 328 325 331 331 321
235 248 226 225 237 247 227 228 237 253 284 300 301 309 314 310 304 304 304 305 303 307 313 317 304 295 294 302 310 315 330 333 344 345 333 328 316 314 316 311 316 321 320
258 280 251 243 247 237 231 240 249 264 290 298 305 311 311 309 304 302 301 302 302 300 305 305 291 291 298 301 309 315 324 327 327 324 329 322 317 306 302 301 301 306 313
259 257 230 233 244 235 239 249 259 268 284 296 303 307 308 309 306 303 303 300 296 290 279 301 296 292 300 308 308 308 315 323 325 321 313 310 302 301 302 308 306 300 301
248 238 239 237 233 238 246 255 255 267 282 295 301 307 310 310 308 306 305 301 295 286 252 270 285 286 284 297 303 303 318 306 310 314 306 304 309 297 296 314 315 306 299
233 234 231 227 228 237 244 250 259 276 289 296 302 305 306 307 308 304 301 300 292 277 264 260 286 291 290 301 305 299 294 309 306 306 306 297 298 298 300 309 309 302 298
249 235 222 224 230 237 245 254 267 281 294 300 302 302 306 308 307 305 305 307 288 289 261 281 296 287 282 295 291 288 294 304 297 299 301 288 300 290 295 302 301 296 287
271 256 235 232 243 239 254 261 273 287 300 300 299 299 304 305 300 299 302 305 298 275 272 284 288 288 293 291 280 287 297 299 298 294 299 291 284 287 287 294 295 288 279
276 278 261 255 265 260 278 274 287 297 296 294 292 298 302 300 299 300 301 304 303 299 288 286 282 288 286 279 289 295 295 292 296 285 293 293 293 296 299 303 299 282 282
Height
3190 3188 3189 3189 3185 3185 3184 3182 3182 3180 3176 3175 3173 3176 3182 3186 3188 3185 3182 3177 3182 3178 3177 3175 3174 3172 3173 3175 3174 3175 3177 3171 3162 3180 3181 3181 3183 3185 3188 3189 3191 3192 3194
3189 3187 3187 3185 3184 3183 3182 3181 3179 3175 3172 3172 3170 3177 3181 3186 3187 3185 3181 3177 3174 3175 3173 3170 3167 3164 3164 3165 3167 3169 3169 3174 3175 3177 3178 3179 3183 3181 3182 3185 3186 3188 3190
3185 3185 3184 3184 3185 3183 3182 3180 3177 3174 3170 3170 3172 3177 3182 3182 3184 3182 3180 3176 3173 3170 3168 3166 3163 3160 3157 3157 3159 3161 3162 3166 3169 3171 3174 3176 3177 3178 3178 3181 3182 3184 3186
3182 3181 3181 3183 3182 3181 3180 3179 3177 3176 3171 3171 3175 3178 3178 3181 3180 3179 3178 3176 3173 3169 3165 3162 3160 3156 3153 3152 3153 3155 3156 3160 3164 3166 3168 3171 3173 3175 3176 3178 3180 3181 3182
3180 3180 3180 3181 3181 3179 3178 3179 3178 3177 3176 3177 3179 3179 3179 3179 3179 3178 3177 3175 3170 3167 3162 3157 3155 3153 3151 3149 3149 3151 3153 3154 3157 3159 3162 3165 3168 3170 3172 3174 3176 3177 3178
3180 3179 3180 3180 3180 3179 3179 3179 3178 3178 3179 3179 3180 3181 3180 3179 3177 3176 3173 3171 3166 3164 3160 3157 3153 3151 3148 3146 3146 3147 3149 3150 3152 3155 3157 3160 3162 3164 3167 3170 3172 3173 3174
3177 3178 3179 3179 3179 3179 3179 3179 3179 3179 3179 3180 3181 3181 3180 3179 3176 3173 3171 3168 3166 3163 3159 3156 3153 3151 3148 3145 3145 3146 3146 3147 3149 3151 3154 3155 3158 3161 3163 3165 3168 3169 3172
3175 3177 3178 3178 3178 3178 3178 3178 3178 3179 3179 3180 3181 3180 3180 3178 3175 3173 3170 3168 3166 3163 3160 3156 3153 3151 3149 3147 3146 3146 3146 3147 3148 3150 3151 3152 3155 3158 3161 3163 3165 3166 3167
3173 3175 3176 3176 3177 3177 3177 3177 3177 3177 3178 3179 3180 3180 3179 3177 3175 3173 3170 3168 3166 3163 3160 3157 3154 3152 3150 3149 3149 3147 3147 3148 3149 3150 3151 3152 3154 3156 3157 3159 3161 3162 3164
3171 3172 3174 3174 3175 3175 3174 3174 3174 3175 3176 3177 3179 3179 3178 3177 3176 3173 3171 3167 3165 3163 3160 3157 3155 3152 3150 3149 3149 3148 3149 3147 3146 3149 3150 3151 3152 3154 3155 3156 3156 3159 3161
3170 3170 3171 3172 3172 3170 3169 3169 3169 3171 3173 3175 3177 3178 3179 3179 3176 3173 3170 3167 3165 3162 3161 3158 3156 3154 3151 3150 3149 3149 3148 3149 3149 3148 3149 3149 3150 3151 3152 3153 3154 3155 3157
3170 3169 3169 3170 3168 3168 3167 3171 3172 3168 3170 3174 3177 3178 3178 3177 3175 3173 3170 3167 3166 3163 3160 3159 3157 3155 3153 3151 3150 3150 3149 3149 3148 3148 3147 3147 3148 3147 3148 3149 3151 3152 3153
3167 3169 3168 3168 3168 3168 3171 3125 3168 3173 3168 3172 3176 3176 3177 3177 3174 3173 3170 3168 3165 3163 3161 3160 3158 3157 3154 3152 3151 3150 3150 3149 3148 3147 3147 3147 3147 3147 3146 3146 3147 3148 3148
3164 3166 3167 3168 3168 3168 3170 3170 3173 3169 3168 3173 3175 3177 3177 3176 3174 3172 3169 3167 3165 3163 3161 3160 3158 3157 3156 3154 3152 3151 3151 3150 3149 3147 3146 3146 3145 3145 3145 3145 3145 3145 3144
3161 3162 3165 3167 3168 3167 3166 3167 3167 3167 3171 3175 3176 3177 3175 3174 3172 3170 3168 3167 3165 3163 3161 3160 3159 3157 3156 3155 3153 3152 3151 3150 3149 3148 3147 3145 3144 3144 3143 3143 3143 3142 3141
3160 3158 3162 3165 3167 3167 3168 3169 3171 3172 3173 3174 3176 3176 3174 3173 3171 3169 3168 3166 3165 3163 3161 3159 3159 3158 3156 3155 3153 3153 3151 3150 3149 3147 3146 3145 3144 3143 3142 3142 3141 3141 3140
3160 3156 3159 3162 3164 3167 3168 3170 3172 3173 3174 3175 3175 3172 3172 3171 3170 3168 3167 3165 3163 3161 3160 3158 3158 3157 3156 3155 3153 3152 3151 3150 3148 3146 3144 3143 3143 3143 3142 3141 3140 3139 3139
3158 3154 3157 3159 3162 3165 3166 3169 3171 3172 3172 3173 3173 3172 3171 3169 3168 3165 3164 3163 3161 3159 3158 3157 3156 3156 3155 3154 3153 3151 3150 3149 3147 3146 3144 3143 3142 3142 3141 3140 3139 3138 3137
3154 3153 3156 3157 3159 3163 3167 3167 3169 3169 3169 3171 3171 3170 3169 3168 3165 3162 3161 3159 3158 3156 3155 3155 3154 3154 3153 3152 3151 3150 3149 3147 3146 3144 3143 3141 3140 3139 3140 3139 3138 3136 3135
3153 3152 3154 3159 3160 3162 3164 3165 3166 3167 3167 3167 3167 3166 3164 3162 3160 3158 3157 3156 3153 3152 3152 3152 3151 3151 3150 3149 3148 3148 3147 3146 3144 3142 3141 3140 3138 3137 3136 3136 3135 3134 3132
3153 3153 3152 3155 3157 3158 3160 3162 3164 3164 3164 3164 3163 3162 3160 3158 3156 3154 3152 3150 3149 3148 3148 3148 3148 3148 3148 3147 3145 3145 3144 3142 3140 3140 3138 3137 3136 3135 3134 3133 3132 3130 3128
3150 3149 3149 3151 3154 3155 3158 3160 3161 3162 3161 3160 3159 3158 3156 3154 3151 3149 3147 3145 3144 3144 3145 3144 3145 3144 3144 3144 3142 3142 3142 3140 3138 3136 3135 3134 3134 3132 3131 3130 3128 3126 3124
3144 3145 3147 3149 3151 3153 3155 3156 3157 3158 3157 3156 3155 3153 3151 3150 3148 3146 3144 3142 3140 3140 3141 3140 3142 3141 3141 3140 3139 3138 3138 3137 3134 3133 3132 3131 3130 3129 3128 3126 3124 3123 3121
3142 3142 3144 3146 3148 3151 3152 3153 3154 3154 3154 3152 3150 3149 3147 3146 3144 3142 3141 3139 3137 3137 3138 3137 3137 3137 3136 3137 3135 3135 3134 3132 3130 3129 3128 3127 3126 3125 3124 3122 3120 3119 3117
3142 3142 3143 3144 3147 3148 3150 3150 3151 3150 3149 3148 3147 3145 3144 3142 3141 3140 3138 3136 3135 3134 3134 3133 3133 3133 3133 3133 3132 3131 3130 3128 3127 3125 3124 3122 3121 3120 3119 3118 3115 3114 3112
3139 3139 3140 3142 3144 3145 3147 3147 3147 3145 3144 3144 3143 3142 3140 3139 3138 3136 3135 3133 3132 3130 3129 3129 3129 3129 3129 3128 3127 3126 3124 3123 3122 3120 3119 3117 3116 3115 3113 3111 3110 3109 3109